Temp
20 20 20 19 20 21 20 20 21 21 21 22 22 23 24 26 27 27 28 30 31 31 33 34 35 36 37 38 39 41 41 42 42 42 44 46 46 47 47 47 48 48
19 19 20 19 20 20 20 20 20 20 20 21 22 22 24 25 25 27 27 28 29 30 31 32 34 35 36 37 38 40 39 40 39 41 41 44 45 46 46 47 46 47
18 18 18 17 18 18 18 19 20 20 20 21 21 22 22 23 24 25 26 27 27 28 29 30 32 33 34 36 37 40 38 38 38 39 39 40 42 43 45 45 45 46
18 17 17 17 18 18 18 18 18 19 19 18 19 21 22 22 23 23 24 25 25 26 28 29 30 31 32 34 36 38 36 36 37 38 38 39 40 41 43 44 44 44
17 17 17 17 18 18 17 17 17 17 17 18 18 20 20 20 21 22 22 23 24 25 26 27 28 29 30 32 34 35 34 34 36 36 36 37 39 40 41 42 43 43
17 17 17 17 17 17 16 16 16 17 17 17 17 18 19 19 20 20 21 21 22 23 24 25 26 27 29 30 32 33 33 32 34 34 34 35 36 38 39 40 41 41
15 16 15 16 16 17 15 16 16 17 16 17 17 17 18 17 19 19 20 21 21 22 22 23 24 25 27 28 30 31 31 31 32 32 32 33 34 35 37 38 39 40
15 15 15 15 15 15 14 15 15 15 16 16 15 17 17 17 18 18 19 19 20 20 21 22 23 24 25 26 28 29 28 30 30 31 31 31 32 32 34 35 37 37
14 14 14 14 14 14 13 14 14 15 16 15 15 16 16 17 17 17 18 18 18 19 20 21 21 22 24 25 26 27 26 27 29 29 29 29 30 30 32 33 34 36
13 13 13 14 13 13 12 14 14 14 15 14 15 15 15 16 17 17 17 17 17 17 18 19 20 21 22 23 25 25 25 26 27 28 28 29 29 30 30 31 32 34
11 12 11 12 12 12 12 13 13 13 14 13 14 14 14 15 16 16 16 16 15 16 17 17 19 20 20 21 23 25 25 25 26 27 27 28 29 29 31 30 31 32
10 10 10 11 11 10 11 12 12 12 12 13 13 13 14 14 14 14 15 15 15 16 16 16 18 18 19 20 22 23 24 25 26 26 27 27 28 29 29 30 30 30
8 9 10 10 9 10 10 10 10 11 11 11 13 12 13 13 13 13 14 14 14 15 15 16 17 17 18 20 21 22 23 24 25 25 26 26 27 27 28 29 29 30
7 8 9 9 9 9 9 9 9 9 10 11 11 11 12 12 12 12 13 13 14 14 15 16 16 16 17 19 20 21 23 23 24 24 24 25 25 26 27 27 28 28
6 7 8 7 7 7 7 7 8 8 9 9 10 10 11 11 12 12 11 12 13 13 14 15 15 15 17 18 19 21 22 22 23 23 23 23 23 24 25 26 26 27
6 6 6 6 5 5 5 6 6 7 7 7 8 9 9 10 10 10 11 11 11 12 13 13 13 15 18 21 23 22 22 22 22 22 22 22 22 22 23 24 25 26
4 4 5 3 4 3 4 4 5 5 5 6 7 7 7 8 9 8 9 10 9 10 10 11 12 14 18 21 22 24 23 22 21 21 22 22 22 22 21 22 23 24
3 3 2 2 2 2 2 3 3 3 3 4 5 5 6 7 6 7 8 8 9 8 9 10 11 14 17 19 22 23 23 22 21 21 21 21 21 21 21 21 22 23
2 1 1 1 0 1 2 2 2 2 2 3 2 4 5 4 5 6 5 7 7 7 7 8 9 13 16 19 20 22 22 22 20 20 20 20 20 19 20 20 21 21
1 0 -1 -1 -0 0 0 0 0 0 2 2 2 3 2 3 4 4 4 4 5 6 6 7 7 11 16 18 19 20 21 22 19 19 19 18 18 19 19 19 20 20
-0 -1 -2 -2 -1 -1 -1 -1 -1 -0 0 0 1 1 1 0 1 1 2 3 4 4 4 4 6 12 15 17 18 19 21 20 18 18 17 17 18 19 19 20 20 21
-2 -3 -3 -3 -3 -2 -3 -3 -2 -1 -2 -1 -0 -0 0 1 0 1 1 1 2 2 2 2 4 11 13 15 17 18 20 17 16 16 16 17 18 19 20 20 21 21
-4 -5 -5 -4 -4 -4 -5 -4 -3 -3 -2 -1 -2 -2 -2 -2 -1 -0 0 -0 -0 1 1 1 3 7 12 14 16 17 17 15 15 16 16 16 17 19 20 20 21 21
-5 -5 -6 -6 -6 -6 -5 -4 -4 -3 -3 -2 -3 -4 -3 -3 -2 -2 -1 -0 -1 -1 0 0 1 5 11 13 15 16 17 14 14 14 14 15 16 18 19 20 21 22
-5 -6 -6 -6 -7 -6 -5 -6 -5 -5 -4 -3 -4 -3 -4 -3 -2 -3 -2 -1 -1 -0 1 1 1 4 9 12 14 16 16 14 14 13 13 14 15 16 18 19 20 22
-6 -7 -7 -7 -7 -7 -6 -6 -5 -6 -6 -5 -5 -5 -5 -4 -4 -3 -4 -3 -1 -0 0 1 1 2 5 11 13 15 16 14 13 12 11 12 15 15 16 18 20 21
MSLP
1033.10 1032.78 1032.54 1032.38 1032.14 1031.90 1031.74 1031.42 1031.02 1030.82 1030.42 1029.98 1029.58 1028.90 1028.34 1027.86 1027.18 1026.74 1026.14 1025.66 1025.22 1024.86 1024.42 1023.98 1023.54 1022.98 1022.42 1021.94 1021.46 1020.86 1020.66 1020.42 1020.26 1019.90 1019.46 1018.90 1018.70 1018.54 1018.26 1018.10 1017.94 1017.70
1033.50 1033.34 1033.06 1032.86 1032.58 1032.38 1032.14 1031.86 1031.50 1031.18 1030.82 1030.42 1029.98 1029.46 1028.94 1028.42 1027.90 1027.30 1026.86 1026.30 1025.74 1025.38 1024.98 1024.58 1024.10 1023.62 1023.02 1022.42 1021.82 1021.26 1021.10 1020.86 1020.66 1020.42 1020.06 1019.46 1019.02 1018.82 1018.62 1018.42 1018.30 1017.98
1033.86 1033.66 1033.42 1033.14 1032.90 1032.70 1032.46 1032.14 1031.82 1031.50 1031.10 1030.70 1030.30 1029.86 1029.42 1028.98 1028.50 1027.94 1027.46 1026.98 1026.54 1026.10 1025.62 1025.22 1024.70 1024.18 1023.66 1023.06 1022.42 1021.86 1021.78 1021.42 1021.14 1020.90 1020.58 1020.18 1019.74 1019.42 1018.98 1018.74 1018.54 1018.34
1034.18 1034.06 1033.86 1033.58 1033.30 1032.98 1032.70 1032.30 1032.02 1031.70 1031.34 1031.02 1030.74 1030.30 1029.90 1029.54 1029.06 1028.50 1028.06 1027.62 1027.22 1026.70 1026.26 1025.82 1025.38 1024.90 1024.30 1023.66 1023.02 1022.58 1022.54 1022.26 1021.94 1021.58 1021.14 1020.70 1020.38 1020.10 1019.54 1019.10 1018.90 1018.66
1034.58 1034.34 1034.18 1033.90 1033.62 1033.30 1033.06 1032.66 1032.34 1031.98 1031.74 1031.54 1031.18 1030.70 1030.34 1029.98 1029.46 1028.98 1028.58 1028.18 1027.78 1027.34 1026.90 1026.38 1025.90 1025.50 1024.94 1024.34 1023.66 1023.22 1023.02 1022.78 1022.42 1022.18 1021.78 1021.34 1020.94 1020.58 1020.14 1019.66 1019.26 1018.94
1034.98 1034.74 1034.58 1034.22 1033.94 1033.58 1033.38 1033.06 1032.78 1032.42 1032.10 1031.70 1031.46 1031.14 1030.82 1030.54 1030.02 1029.58 1029.22 1028.78 1028.30 1027.86 1027.46 1026.94 1026.54 1026.02 1025.50 1024.90 1024.22 1023.82 1023.62 1023.26 1022.90 1022.66 1022.38 1021.94 1021.50 1021.14 1020.74 1020.34 1019.86 1019.34
1035.26 1035.02 1034.86 1034.54 1034.30 1033.94 1033.78 1033.38 1033.14 1032.82 1032.50 1032.22 1031.86 1031.46 1031.10 1030.82 1030.38 1030.14 1029.74 1029.34 1028.86 1028.38 1027.94 1027.46 1027.02 1026.54 1025.98 1025.50 1024.82 1024.34 1024.14 1023.74 1023.34 1023.10 1022.82 1022.50 1022.10 1021.66 1021.26 1020.86 1020.46 1019.98
1035.54 1035.34 1035.14 1034.86 1034.62 1034.30 1034.14 1033.74 1033.50 1033.18 1032.82 1032.50 1032.22 1031.82 1031.50 1031.10 1030.70 1030.38 1030.02 1029.66 1029.26 1028.86 1028.42 1027.98 1027.58 1027.06 1026.54 1025.98 1025.38 1024.90 1024.62 1024.22 1023.82 1023.46 1023.18 1022.90 1022.54 1022.18 1021.74 1021.34 1020.90 1020.42
1035.86 1035.58 1035.38 1035.06 1034.90 1034.62 1034.50 1034.06 1033.82 1033.54 1033.14 1032.90 1032.50 1032.14 1031.82 1031.46 1031.06 1030.70 1030.34 1029.94 1029.62 1029.22 1028.74 1028.34 1027.94 1027.46 1026.98 1026.50 1025.90 1025.46 1025.18 1024.78 1024.34 1024.02 1023.70 1023.34 1022.98 1022.70 1022.30 1021.82 1021.30 1020.78
1036.22 1035.94 1035.66 1035.34 1035.18 1034.94 1034.82 1034.42 1034.22 1033.86 1033.46 1033.22 1032.82 1032.46 1032.10 1031.66 1031.34 1031.06 1030.62 1030.26 1029.90 1029.46 1029.10 1028.70 1028.14 1027.70 1027.30 1026.90 1026.42 1025.94 1025.62 1025.18 1024.74 1024.42 1024.14 1023.78 1023.46 1023.06 1022.66 1022.26 1021.86 1021.22
1036.54 1036.30 1036.06 1035.74 1035.54 1035.30 1035.06 1034.74 1034.50 1034.14 1033.82 1033.50 1033.06 1032.78 1032.38 1031.90 1031.58 1031.26 1030.90 1030.58 1030.26 1029.86 1029.42 1029.02 1028.54 1028.02 1027.62 1027.10 1026.62 1026.30 1025.94 1025.46 1025.02 1024.70 1024.38 1024.02 1023.70 1023.38 1022.98 1022.66 1022.26 1021.90
1036.86 1036.66 1036.38 1036.14 1035.98 1035.78 1035.42 1035.10 1034.82 1034.50 1034.18 1033.86 1033.46 1033.10 1032.66 1032.30 1031.94 1031.58 1031.22 1030.90 1030.62 1030.22 1029.86 1029.46 1028.90 1028.50 1028.02 1027.42 1026.82 1026.42 1026.02 1025.62 1025.26 1024.86 1024.50 1024.18 1023.86 1023.54 1023.26 1022.94 1022.62 1022.22
1037.26 1037.06 1036.70 1036.50 1036.38 1036.14 1035.86 1035.54 1035.22 1034.90 1034.54 1034.18 1033.74 1033.46 1032.98 1032.62 1032.30 1031.90 1031.58 1031.22 1030.86 1030.46 1030.10 1029.62 1029.18 1028.78 1028.34 1027.74 1027.22 1026.74 1026.22 1025.66 1025.26 1024.94 1024.62 1024.34 1024.02 1023.74 1023.38 1023.18 1022.94 1022.58
1037.66 1037.34 1037.02 1036.86 1036.74 1036.46 1036.18 1035.90 1035.58 1035.26 1034.90 1034.50 1034.10 1033.70 1033.26 1033.02 1032.62 1032.22 1031.94 1031.58 1031.14 1030.74 1030.34 1029.86 1029.46 1029.02 1028.50 1028.02 1027.54 1027.02 1026.46 1025.98 1025.54 1025.14 1024.74 1024.38 1024.10 1023.78 1023.54 1023.30 1023.06 1022.78
1037.86 1037.58 1037.30 1037.22 1037.06 1036.74 1036.46 1036.18 1035.90 1035.54 1035.18 1034.82 1034.42 1034.02 1033.66 1033.34 1032.94 1032.62 1032.22 1031.78 1031.38 1031.02 1030.58 1030.18 1029.78 1029.34 1028.70 1028.18 1027.62 1027.06 1026.70 1026.26 1025.82 1025.42 1025.06 1024.58 1024.14 1023.78 1023.50 1023.30 1023.06 1022.74
1037.98 1037.78 1037.58 1037.50 1037.30 1037.06 1036.82 1036.46 1036.14 1035.78 1035.42 1035.06 1034.66 1034.30 1033.98 1033.54 1033.18 1032.90 1032.46 1032.02 1031.62 1031.26 1030.86 1030.50 1030.10 1029.58 1028.98 1028.46 1027.94 1027.38 1026.82 1026.42 1025.98 1025.66 1025.26 1024.90 1024.42 1023.90 1023.50 1023.26 1022.98 1022.70
1038.10 1037.94 1037.78 1037.82 1037.50 1037.38 1037.02 1036.74 1036.34 1035.98 1035.66 1035.26 1034.86 1034.54 1034.18 1033.74 1033.46 1033.10 1032.62 1032.30 1031.98 1031.54 1031.18 1030.78 1030.30 1029.74 1029.14 1028.54 1028.02 1027.46 1027.02 1026.58 1026.18 1025.74 1025.38 1025.06 1024.70 1024.30 1023.82 1023.26 1022.90 1022.70
1038.30 1038.14 1038.06 1037.90 1037.70 1037.54 1037.18 1036.86 1036.50 1036.22 1035.90 1035.42 1035.10 1034.78 1034.30 1033.98 1033.78 1033.26 1032.86 1032.58 1032.14 1031.82 1031.46 1030.98 1030.46 1029.94 1029.38 1028.70 1028.02 1027.50 1027.10 1026.66 1026.22 1025.82 1025.42 1025.10 1024.74 1024.46 1024.06 1023.62 1023.10 1022.58
1038.50 1038.34 1038.22 1038.10 1037.90 1037.58 1037.26 1036.94 1036.66 1036.34 1035.94 1035.54 1035.30 1034.90 1034.54 1034.34 1033.86 1033.38 1033.18 1032.74 1032.42 1031.98 1031.50 1031.06 1030.66 1030.10 1029.42 1028.70 1028.10 1027.58 1027.06 1026.62 1026.18 1025.82 1025.46 1025.10 1024.74 1024.46 1024.10 1023.70 1023.26 1022.70
1038.70 1038.50 1038.42 1038.26 1037.98 1037.70 1037.38 1037.10 1036.82 1036.50 1036.02 1035.78 1035.42 1035.06 1034.78 1034.38 1033.98 1033.70 1033.34 1033.02 1032.58 1032.18 1031.74 1031.26 1030.86 1030.14 1029.30 1028.66 1028.14 1027.58 1027.02 1026.50 1026.14 1025.82 1025.50 1025.10 1024.78 1024.42 1024.02 1023.58 1023.18 1022.74
1038.82 1038.74 1038.62 1038.34 1038.06 1037.78 1037.46 1037.22 1036.86 1036.46 1036.18 1035.90 1035.50 1035.22 1034.86 1034.50 1034.06 1033.78 1033.46 1033.06 1032.74 1032.34 1031.90 1031.38 1030.90 1030.14 1029.42 1028.78 1028.14 1027.54 1026.90 1026.42 1026.18 1025.86 1025.46 1025.02 1024.58 1024.18 1023.82 1023.42 1022.98 1022.62
1039.06 1038.98 1038.74 1038.46 1038.14 1037.82 1037.58 1037.30 1036.86 1036.62 1036.26 1035.90 1035.58 1035.26 1034.94 1034.54 1034.26 1033.86 1033.46 1033.10 1032.82 1032.46 1031.98 1031.42 1030.86 1030.26 1029.58 1028.86 1028.18 1027.54 1026.90 1026.54 1026.18 1025.74 1025.30 1024.82 1024.34 1023.98 1023.54 1023.14 1022.78 1022.42
1039.34 1039.14 1038.86 1038.58 1038.30 1037.98 1037.70 1037.34 1036.94 1036.66 1036.38 1036.02 1035.66 1035.38 1034.94 1034.58 1034.26 1033.86 1033.54 1033.18 1032.78 1032.42 1032.02 1031.38 1030.78 1030.30 1029.54 1028.86 1028.22 1027.62 1026.98 1026.54 1026.10 1025.62 1025.14 1024.66 1024.18 1023.70 1023.26 1022.86 1022.58 1022.26
1039.54 1039.26 1038.98 1038.70 1038.42 1038.18 1037.78 1037.42 1037.18 1036.86 1036.54 1036.18 1035.90 1035.42 1034.94 1034.66 1034.18 1033.74 1033.46 1033.18 1032.78 1032.38 1032.06 1031.42 1030.74 1030.18 1029.46 1028.74 1028.18 1027.58 1027.06 1026.62 1026.10 1025.58 1025.10 1024.58 1024.06 1023.58 1023.14 1022.62 1022.26 1021.94
1039.54 1039.34 1039.14 1038.78 1038.54 1038.26 1037.94 1037.62 1037.26 1036.90 1036.62 1036.38 1036.02 1035.54 1035.14 1034.70 1034.26 1033.82 1033.30 1032.98 1032.70 1032.30 1031.78 1031.50 1030.74 1030.06 1029.46 1028.74 1028.06 1027.54 1027.02 1026.62 1026.14 1025.62 1025.10 1024.62 1024.06 1023.42 1022.94 1022.50 1021.98 1021.62
1039.62 1039.38 1039.18 1038.94 1038.62 1038.30 1038.06 1037.78 1037.38 1037.06 1036.78 1036.26 1035.90 1035.62 1035.14 1034.66 1034.30 1033.86 1033.30 1032.78 1032.46 1032.14 1031.74 1031.26 1030.70 1030.06 1029.62 1028.74 1028.06 1027.46 1027.02 1026.58 1026.18 1025.74 1025.26 1024.58 1024.02 1023.54 1022.82 1022.26 1021.86 1021.42
Wind_Speed
10 10 9 9 9 9 10 11 9 10 10 10 10 11 11 12 14 14 13 13 14 13 13 14 13 13 12 10 12 8 10 10 10 10 11 8 9 10 10 11 10 8
12 12 10 9 8 10 9 9 9 10 9 10 10 10 10 12 13 12 14 14 13 12 13 13 13 14 14 11 12 10 11 11 11 10 11 13 9 10 10 11 9 9
12 12 11 12 10 11 12 10 9 10 9 10 10 9 10 10 12 13 12 13 13 13 13 13 13 14 13 12 12 10 12 12 12 12 11 11 11 11 9 9 9 10
12 12 10 11 10 11 11 9 10 9 9 11 11 10 10 11 10 12 12 14 13 13 12 13 13 13 13 13 12 10 12 10 11 12 11 10 10 11 11 9 8 8
11 11 11 10 10 10 10 10 12 11 11 11 9 11 11 12 11 12 12 12 12 12 12 13 13 13 13 12 11 11 11 10 11 12 11 11 11 11 10 11 11 10
10 10 11 10 11 10 11 10 11 11 11 12 11 11 10 11 11 12 13 13 12 11 12 12 12 12 12 12 10 11 11 10 11 13 12 12 12 11 9 11 12 11
11 10 11 10 11 10 11 10 11 11 10 10 10 10 11 11 11 12 12 12 12 12 12 12 13 13 12 11 10 12 11 11 12 12 12 11 11 12 12 12 12 12
11 10 10 10 11 10 11 10 11 11 11 11 10 11 11 11 11 11 11 11 12 11 11 12 12 12 12 11 11 12 12 10 11 13 12 12 11 12 13 11 12 12
10 10 10 11 11 10 11 11 11 11 11 11 11 11 10 10 11 12 12 12 12 12 12 11 12 11 11 11 11 12 12 12 11 12 12 12 12 12 12 12 13 12
10 11 11 11 11 10 12 11 11 10 11 11 11 10 11 10 10 11 11 12 12 11 12 12 12 12 12 11 11 12 12 12 12 11 11 11 11 11 12 12 12 13
10 10 11 11 12 11 12 12 11 11 10 11 11 11 11 11 11 11 10 11 11 12 12 12 12 13 13 12 10 11 11 12 12 11 10 11 11 11 12 11 12 12
10 10 10 11 12 11 12 12 12 11 11 10 11 11 11 10 11 10 10 11 11 11 11 12 12 12 12 12 12 12 11 11 10 11 11 11 11 11 11 11 11 12
10 10 10 10 11 10 10 11 11 12 11 11 11 11 11 11 11 11 11 11 11 11 11 12 11 11 11 11 12 13 13 12 12 12 11 10 10 11 10 10 11 11
9 9 9 9 10 10 10 10 10 11 11 11 11 11 11 11 11 11 11 10 10 11 11 10 11 11 10 10 11 12 13 13 13 13 12 12 12 11 11 10 11 11
8 8 7 9 9 10 10 11 10 10 10 10 10 10 10 11 11 11 11 11 10 11 11 10 10 10 8 10 13 14 13 13 13 12 13 13 12 11 10 10 10 10
7 7 8 8 9 10 10 10 10 10 10 10 10 10 11 10 11 11 10 10 11 11 10 10 9 8 12 22 20 14 14 12 12 12 12 12 12 12 12 10 10 9
8 8 8 9 9 9 9 10 10 9 10 10 10 10 11 11 10 11 10 11 11 11 11 10 9 9 20 22 21 23 16 13 13 13 12 11 10 11 12 13 11 11
8 8 8 9 9 9 10 9 9 10 10 10 10 11 10 10 10 10 11 11 10 11 11 10 10 14 22 21 22 23 21 15 13 12 11 11 10 11 11 12 13 11
8 8 8 9 9 9 9 9 9 9 9 10 10 10 10 10 10 11 11 10 10 11 11 11 10 17 20 22 22 23 23 20 12 12 12 11 11 10 11 11 11 12
8 8 9 9 9 9 9 9 10 9 9 9 9 9 9 10 10 11 11 10 10 11 11 11 11 16 21 23 23 23 23 20 13 13 12 12 12 12 11 11 11 11
8 9 10 10 9 9 9 9 10 9 10 9 9 9 10 10 10 11 10 10 11 11 11 11 10 19 21 23 23 23 24 20 12 11 11 12 11 11 11 11 11 11
9 9 10 9 10 9 10 10 10 10 11 10 9 9 9 9 9 9 10 11 11 11 11 12 11 18 21 22 23 23 25 14 12 12 12 12 12 12 11 10 9 9
9 9 9 10 10 10 10 10 10 11 10 9 10 10 10 10 10 10 9 10 11 10 12 12 12 16 21 22 22 24 19 12 13 11 11 12 12 12 12 11 10 10
8 8 10 9 9 9 10 10 10 9 9 9 10 11 11 11 11 11 10 9 11 12 11 13 13 16 22 23 23 23 20 14 12 12 12 12 12 12 11 11 12 19
8 8 9 9 9 10 9 11 10 10 10 9 9 10 10 10 10 11 11 10 9 11 15 14 12 15 21 23 25 23 19 13 12 12 12 12 12 12 12 11 12 12
7 8 9 9 10 10 9 10 9 9 10 10 10 9 10 10 10 11 12 11 11 11 11 11 13 13 15 24 24 24 23 16 12 12 12 13 13 12 13 12 12 12
Wind_Direction
16 14 14 12 11 11 2 1 359 357 353 355 351 344 348 346 340 350 344 350 350 350 350 347 346 347 345 344 351 348 11 3 359 355 345 348 1 353 357 0 359 354
16 14 12 10 13 12 3 4 358 1 354 355 348 341 348 344 346 344 352 347 347 349 350 348 348 348 347 345 343 359 6 5 359 358 349 348 357 355 356 359 354 352
11 8 7 10 6 4 1 3 359 1 356 352 348 348 350 348 345 348 346 348 346 348 350 347 349 348 346 346 340 8 5 2 2 354 351 351 350 351 351 354 355 355
5 8 360 3 359 1 354 352 356 360 356 0 358 347 351 347 342 344 349 349 347 346 348 346 351 347 345 347 343 11 3 3 360 351 352 351 352 349 344 350 350 354
0 2 359 359 354 357 356 356 354 356 353 354 343 352 355 350 349 348 351 348 348 347 347 345 351 347 343 343 340 6 360 359 1 358 354 352 351 351 345 347 347 351
1 2 359 357 355 355 357 355 354 354 346 350 352 345 349 347 351 352 351 349 345 346 345 344 351 345 343 341 343 6 358 357 357 357 356 354 350 349 348 346 344 345
358 360 358 357 356 355 358 352 353 353 346 348 342 342 350 345 349 352 349 347 343 348 347 346 348 345 344 343 344 359 357 354 354 357 355 353 350 346 348 346 344 341
356 356 357 354 358 355 357 351 352 351 344 346 346 342 349 340 346 347 346 347 346 345 345 345 346 344 344 344 343 354 352 352 352 353 352 351 350 348 346 344 340 339
353 354 355 354 358 355 355 351 351 347 345 346 342 343 342 341 343 343 342 345 345 345 345 344 344 343 344 342 343 350 348 346 348 349 349 348 348 346 344 340 339 338
354 353 353 356 357 354 351 350 347 345 342 344 340 341 339 338 344 341 342 344 344 342 347 343 341 343 342 340 343 346 344 341 343 344 343 342 342 340 341 342 338 337
353 353 351 354 355 349 349 348 345 344 342 341 340 340 337 339 341 342 341 344 343 340 341 339 340 341 339 335 339 342 339 337 337 338 337 337 337 337 338 338 337 335
352 350 350 353 350 346 345 346 343 342 340 339 340 338 335 340 340 339 341 338 337 335 336 331 333 335 332 329 337 339 336 334 334 333 333 333 333 334 334 336 333 332
350 347 347 349 348 342 343 341 341 339 339 338 338 336 335 339 337 336 336 336 331 334 332 329 330 330 327 329 335 336 334 335 334 333 330 331 328 328 328 329 329 326
345 341 345 347 343 341 339 338 337 337 337 335 334 336 338 337 335 336 331 331 329 331 328 328 328 327 323 326 333 332 333 332 331 329 328 325 324 324 324 324 323 321
337 339 343 343 338 339 337 336 336 334 334 331 332 333 335 331 332 332 328 328 328 328 328 330 327 323 323 331 332 331 331 329 326 325 324 322 321 319 319 319 318 316
334 339 338 341 338 341 335 332 332 333 331 330 331 332 329 328 330 330 327 328 329 326 328 327 323 318 321 327 329 328 328 326 323 321 319 318 317 317 317 317 315 317
338 337 343 342 337 337 332 331 329 329 328 326 329 329 327 328 328 326 330 330 326 325 326 323 318 313 321 326 326 328 328 324 321 318 315 314 312 316 316 316 315 313
337 337 338 337 337 330 333 328 328 329 326 325 329 327 326 328 325 324 327 325 322 322 319 318 315 315 320 323 325 327 326 323 318 314 312 310 308 309 310 311 311 309
334 335 336 335 331 328 325 328 327 324 323 328 327 322 324 323 320 325 323 320 319 319 318 316 313 313 318 320 324 324 323 323 317 314 311 305 305 306 304 305 306 308
332 335 334 329 328 328 325 328 327 324 324 325 320 323 322 319 319 320 319 319 318 318 313 313 312 311 319 321 322 322 322 323 318 315 307 302 302 300 300 301 302 302
332 335 331 326 326 327 326 324 323 322 327 323 323 323 322 320 320 318 317 317 317 315 312 310 306 312 319 321 321 323 323 325 318 310 305 302 300 299 300 299 297 298
334 329 325 324 324 324 326 324 324 325 324 322 322 319 315 312 314 310 312 314 313 313 311 309 307 315 317 319 321 323 325 325 318 312 308 304 303 302 300 297 295 292
328 324 321 322 322 322 323 322 325 324 323 322 322 318 318 318 316 315 312 310 311 313 311 307 309 314 317 319 322 323 326 322 319 313 309 307 304 304 303 299 297 295
320 320 318 317 318 319 318 321 320 316 318 322 321 317 318 315 313 312 310 309 310 310 311 312 309 312 318 320 322 324 326 323 318 315 309 307 306 303 302 299 298 300
314 313 312 313 315 314 318 318 316 317 317 315 312 311 309 309 311 310 309 309 306 307 311 311 306 313 318 321 322 325 327 323 320 315 312 310 307 306 304 301 300 299
308 308 309 311 310 311 314 311 311 314 312 312 312 311 307 310 309 308 308 307 310 311 309 312 312 311 314 319 322 323 324 324 320 316 314 311 310 308 306 305 304 304